Change the Weather History Date:

Friday, March 16, 2012

  Actual Average Record
Temperature  
Mean Temperature 74 °F -  
Max Temperature 80 °F 80 °F 91 °F (2008)
Min Temperature 68 °F 63 °F 45 °F (1993)
Cooling Degree Days 9    
Growing Degree Days 24 (Base 50)    
Moisture  
Dew Point 65 °F    
Average Humidity 79    
Maximum Humidity 96    
Minimum Humidity 50    
Precipitation  
Precipitation 1.24 in - - ()
Sea Level Pressure  
Sea Level Pressure 30.19 in    
Wind  
Wind Speed 7 mph (East)    
Max Wind Speed 15 mph    
Max Gust Speed 20 mph    
Visibility 8 miles    
Events Rain    
Averages and records for this station are not official NWS values.
T = Trace of Precipitation, MM = Missing Value Source: NWS Daily Summary

Daily Weather History Graph

Daily Weather History Graph

Search for Another Location

Airport or City:

Trip Planner

Search our weather history database for the weather conditions in past years. The results will help you decide how hot, cold, wet, or windy it might be!

Date:

Astronomy

Mar. 16, 2012 Rise Set
Actual Time 7:28 AM EDT 7:30 PM EDT
Civil Twilight 7:05 AM EDT 7:53 PM EDT
Nautical Twilight 6:39 AM EDT 8:20 PM EDT
Astronomical Twilight 6:12 AM EDT 8:47 PM EDT
Moon 3:15 AM EDT (3/16) 2:18 PM EDT (3/16)
Length of Visible Light 12h 47m
Length of Day
12h 01m
Waning Crescent, 33% of the Moon is Illuminated
Mar 16
Waning Crescent
Mar 22
New
Mar 30
First Quarter
Apr 6
Full
Apr 13
Last Quarter

Hourly Weather History & Observations

Time (EDT) Temp. Heat Index Dew Point Humidity Pressure Visibility Wind Dir Wind Speed Gust Speed Precip Events Conditions
12:53 AM 72.0 °F - 66.0 °F 81% 30.19 in 10.0 mi East 11.5 mph - 0.00 in Rain Light Rain
1:53 AM 71.1 °F - 66.0 °F 84% 30.17 in 10.0 mi ESE 5.8 mph - 0.00 in   Partly Cloudy
2:53 AM 69.1 °F - 64.9 °F 87% 30.14 in 10.0 mi ENE 5.8 mph - N/A   Partly Cloudy
3:53 AM 69.1 °F - 64.9 °F 87% 30.14 in 10.0 mi ENE 4.6 mph - N/A   Partly Cloudy
4:53 AM 69.1 °F - 64.9 °F 87% 30.13 in 10.0 mi East 4.6 mph - N/A   Partly Cloudy
5:53 AM 69.1 °F - 64.9 °F 87% 30.15 in 10.0 mi East 4.6 mph - N/A   Mostly Cloudy
6:53 AM 68.0 °F - 64.0 °F 87% 30.17 in 10.0 mi Calm Calm - N/A   Scattered Clouds
7:36 AM 69.8 °F - 66.2 °F 88% 30.17 in 10.0 mi ESE 4.6 mph - N/A   Mostly Cloudy
7:53 AM 70.0 °F - 66.0 °F 87% 30.19 in 10.0 mi East 6.9 mph - N/A   Mostly Cloudy
8:03 AM 69.8 °F - 64.4 °F 83% 30.19 in 10.0 mi ESE 6.9 mph - N/A   Mostly Cloudy
8:53 AM 71.1 °F - 66.0 °F 84% 30.21 in 10.0 mi SE 10.4 mph - N/A   Overcast
9:15 AM 69.8 °F - 66.2 °F 88% 30.21 in 2.5 mi ESE 5.8 mph - 0.18 in Rain Heavy Rain
9:36 AM 69.8 °F - 66.2 °F 88% 30.21 in 3.0 mi NNE 9.2 mph - 0.35 in Rain Light Rain
9:53 AM 70.0 °F - 66.9 °F 90% 30.22 in 2.0 mi Variable 5.8 mph - 0.52 in Rain Heavy Rain
10:02 AM 69.8 °F - 66.2 °F 88% 30.21 in 5.0 mi SSE 8.1 mph - 0.01 in Rain Light Rain
10:26 AM 69.8 °F - 66.2 °F 88% 30.22 in 2.0 mi SSE 6.9 mph - 0.25 in Rain Rain
10:37 AM 69.8 °F - 66.2 °F 88% 30.22 in 3.0 mi East 5.8 mph - 0.25 in Rain Light Rain
10:53 AM 71.1 °F - 70.0 °F 96% 30.22 in 3.0 mi Calm Calm - 0.25 in   Mostly Cloudy
11:18 AM 71.6 °F - 66.2 °F 83% 30.22 in 10.0 mi South 5.8 mph - 0.00 in Rain Light Rain
11:53 AM 71.1 °F - 66.0 °F 84% 30.22 in 3.0 mi North 5.8 mph - 0.47 in Rain Light Rain
12:22 PM 73.4 °F - 66.2 °F 78% 30.22 in 10.0 mi East 12.7 mph - 0.01 in   Overcast
12:53 PM 73.4 °F - 66.2 °F 78% 30.21 in 10.0 mi ESE 6.9 mph - N/A   Overcast
1:53 PM 78.1 °F - 64.9 °F 64% 30.19 in 10.0 mi East 15.0 mph - N/A   Mostly Cloudy
2:53 PM 79.0 °F - 62.1 °F 56% 30.17 in 10.0 mi East 12.7 mph - N/A   Scattered Clouds
3:53 PM 80.1 °F 80.9 °F 60.1 °F 50% 30.16 in 10.0 mi East 13.8 mph - N/A   Scattered Clouds
4:53 PM 78.1 °F - 62.1 °F 58% 30.14 in 10.0 mi East 12.7 mph 19.6 mph N/A   Scattered Clouds
5:53 PM 77.0 °F - 62.1 °F 60% 30.14 in 10.0 mi East 11.5 mph - N/A   Clear
6:53 PM 75.9 °F - 62.1 °F 62% 30.16 in 10.0 mi East 11.5 mph - N/A   Scattered Clouds
7:53 PM 73.9 °F - 62.1 °F 66% 30.16 in 10.0 mi ENE 8.1 mph - N/A   Clear
8:53 PM 73.0 °F - 62.1 °F 68% 30.18 in 10.0 mi ENE 6.9 mph - N/A   Partly Cloudy
9:53 PM 71.1 °F - 62.1 °F 73% 30.19 in 10.0 mi ENE 4.6 mph - N/A   Scattered Clouds
10:53 PM 72.0 °F - 63.0 °F 73% 30.19 in 10.0 mi ENE 6.9 mph - N/A   Partly Cloudy
11:53 PM 72.0 °F - 63.0 °F 73% 30.20 in 10.0 mi NE 4.6 mph - N/A   Mostly Cloudy